weather.gov     
National Weather Service

Regional Weather Roundup
NWS Homepage
This page is being discontinued on March 12, 2014.
The same data is available at this site. Please update your bookmarks.
Thank you, and we apologize for the inconvenience.
Please send an email to SR-SRH.Webmaster@noaa.gov with any concerns.


Current Version
Previous Version:    01  02  03  04  05  06  07  08  09  10  11  12  13  14  15  16  17  18  19  20  21  22  23  24  25  26  27  28  29  30  
   31  
[Printable]
008
ASUS41 KBOX 301210
RWRBOX

REGIONAL WEATHER ROUNDUP
NATIONAL WEATHER SERVICE TAUNTON MA
800 AM EDT TUE SEP 30 2014

NOTE:  "FAIR" INDICATES FEW OR NO CLOUDS BELOW 12,000 FEET WITH NO
SIGNIFICANT WEATHER AND/OR OBSTRUCTIONS TO VISIBILITY.  THE FOLLOWING
OBSERVATION LOCATIONS DO NOT REPORT PRESENT WEATHER...PROVINCETOWN...
SMITHFIELD...BLOCK ISLAND...KEENE...AND OXFORD.

MAZALL-301300-
EASTERN MASSACHUSETTS

CITY           SKY/WX    TMP DP  RH WIND       PRES   REMARKS
BOSTON         LGT RAIN  56  55  97 N9        30.04R FOG
6HR MIN TEMP:  56; 6HR MAX TEMP:  57; 6HR PCP: TRACE;

BEVERLY        CLOUDY    55  53  93 VRB5      30.04R FOG
LAWRENCE       CLOUDY    54  53  97 NE9       30.06S FOG
BEDFORD        CLOUDY    55  54  96 NE7       30.03S FOG
BLUE HILL        N/A     53  53 100 NE12G24   30.02R
NORWOOD        CLOUDY    57  54  89 VRB7      30.03R
MARSHFIELD     NOT AVBL
PLYMOUTH       CLOUDY    57  57 100 N10       30.01S FOG
TAUNTON        CLOUDY    57  55  93 VRB5      30.01S
NEW BEDFORD    CLOUDY    58  56  93 N7        30.01R
$$

MAZALL-301300-
CAPE COD AND THE ISLANDS

CITY           SKY/WX    TMP DP  RH WIND       PRES   REMARKS
FALMOUTH       CLOUDY    59  59 100 VRB6G13   30.01R FOG
HYANNIS        CLOUDY    62  60  93 N8        29.99R FOG
CHATHAM        CLOUDY    62  60  93 CALM      30.00S
PROVINCETOWN   CLOUDY    59  57  94 N12G18    30.01R
NANTUCKET      CLOUDY    62  59  90 N10       29.99R
MARTHAS VNYRD  CLOUDY    59  58  96 N10       30.00R
$$

MAZALL-301300-
CENTRAL AND WESTERN MASSACHUSETTS

CITY           SKY/WX    TMP DP  RH WIND       PRES   REMARKS
WORCESTER      FOG       53  52  96 NE6       30.04R VSB 1/4
6HR MIN TEMP:  52; 6HR MAX TEMP:  54; 6HR PCP:  0.01;

FITCHBURG      CLOUDY    56  53  90 N7        30.05S FOG
ORANGE         CLOUDY    55  54  96 NW6       30.04R
SPRINGFIELD    CLOUDY    57  55  94 N6        30.02S
WESTFIELD      CLOUDY    58  55  90 N7        30.02S
NORTH ADAMS    CLOUDY    59  53  80 E9        30.02R
PITTSFIELD     CLOUDY    56  53  90 NE6       30.01R
$$

RIZALL-301300-
RHODE ISLAND

CITY           SKY/WX    TMP DP  RH WIND       PRES   REMARKS
PROVIDENCE     LGT RAIN  58  55  90 N8        30.03R
6HR MIN TEMP:  57; 6HR MAX TEMP:  60; 6HR PCP: TRACE;

NEWPORT        LGT RAIN  59  56  89 N9        30.01R
BLOCK ISLAND   CLOUDY    61  55  82 NE10      30.00S
SMITHFIELD     CLOUDY    55  48  76 NE7       30.03R
WESTERLY       LGT RAIN  58  56  93 NE7       30.01R
$$

CTZALL-301300-
CONNECTICUT

CITY           SKY/WX    TMP DP  RH WIND       PRES   REMARKS
BRADLEY INTL   CLOUDY    60  54  80 NE7       30.01R
6HR MIN TEMP:  60; 6HR MAX TEMP:  62;

HARTFORD       CLOUDY    60  55  83 VRB6      30.01R
BRIDGEPORT     CLOUDY    62  60  93 NE9       29.99R
DANBURY        CLOUDY    60  58  92 E8        30.00R FOG
GROTON         LGT RAIN  58  57  97 NE6       30.00R
NEW HAVEN      CLOUDY    64  58  80 N9        30.00R FOG
CHESTER        NOT AVBL
MERIDEN        CLOUDY    60  56  86 NE8       30.00S
WILLIMANTIC    CLOUDY    58  54  86 NE7       30.02R
OXFORD         CLOUDY    57  54  88 E7        30.02R FOG
$$

MEZ002-015-021-024-NHZ003-005-008-011-012-014-VTZ005-008-301300-
NORTHERN NEW ENGLAND

CITY           SKY/WX    TMP DP  RH WIND       PRES   REMARKS
PORTLAND ME    CLOUDY    52  50  93 N7        30.08R
6HR MIN TEMP:  52; 6HR MAX TEMP:  54;

BANGOR ME      CLOUDY    48  45  89 N9        30.10R FOG
CONCORD NH     CLOUDY    55  53  93 E3        30.06R
MANCHESTER NH  CLOUDY    56  52  86 E6        30.04R FOG
NASHUA NH      CLOUDY    56  55  96 NE5       30.06R FOG
PORTSMOUTH NH  CLOUDY    54  52  92 N8        30.04R
JAFFREY NH     CLOUDY    54  53  97 CALM      30.06R FOG
KEENE NH       CLOUDY    57  46  67 CALM      30.05R
BURLINGTON VT  MOSUNNY   52  48  86 CALM      30.00R
MT. WASHINGTON PTSUNNY   45  34  65 W10         N/A
$$

NYZ052-076-301300-
EASTERN NEW YORK

CITY           SKY/WX    TMP DP  RH WIND       PRES   REMARKS
ALBANY         CLOUDY    59  56  89 CALM      29.98R
6HR MIN TEMP:  55; 6HR MAX TEMP:  59;

NEW YORK CITY  CLOUDY    68  61  78 N5        29.95R
6HR MIN TEMP:  68; 6HR MAX TEMP:  71;

$$

ANZALL-301300-
MARINE OBSERVATIONS

STATION/POSITION TIME  TEMP    WIND        PRES    VSBY  WAVE
                       AIR SEA DIR/SP/G                  HT/PER
                 (UTC) (F)     (DEG/KT/KT) (MB)    (MI)  (FT/S)
BOSTON BUOY      1150   56 61   20/ 17/ 21 1016.7R         6/ 8
BUZZARDS BAY     1100           20/ 15/ 16 1016.2R
NANTUCKET SOUND  1150   62 65  360/ 10/ 12 1015.4R         1/ 3
MASS BAY-STELLWA 1104   57 60   30/ 17/ 21   N/A    1 7/8  7/ 6
ISLE OF SHOALS   1100   55      40/ 17/ 20 1016.5R
S OF BLOCK IS    1108      67                N/A           2/ 3
$$

......................KEY.........................
  SKY/WX - SKY CONDITION/PRESENT WEATHER
  TMP    - TEMPERATURE IN FAHRENHEIT
  DWPT   - DEWPOINT IN FAHRENHEIT
  RH     - RELATIVE HUMIDITY IN PERCENT
  WIND   - DIRECTION AND SPEED IN MPH
  PRES   - MEAN SEA LEVEL PRESSURE IN INCHES OF HG
  WCI    - WIND CHILL INDEX
  VSB    - VISIBILITY IN MILES
  HX     - HEAT INDEX
  TC     - TEMPERATURE IN CELSIUS
  VRB    - VARIABLE WIND DIRECTION
  N/A    - NOT AVAILABLE




U.S. Dept. of Commerce
NOAA National Weather Service
1325 East West Highway
Silver Spring, MD 20910
E-mail: w-nws.webmaster@noaa.gov
Page last modified: May 16, 2007
NATIONAL WEATHER SERVICE: for Safety, for Work, for Fun - FOR LIFE